Regional Weather Roundup
Issued by NWS

Home | Current Version | Previous Version | Text Only | Print | Product List | Glossary Off
Versions: 1 2 3 4 5 6 7 8 9 10 11 12 13 14 15 16 17 18 19 20 21 22 23 24 25 26 27 28 29 30 31 32 33 34 35 36 37 38 39 40 41 42 43 44 45 46 47 48 49 50

000
ASUS45 KTFX 250910
RWRMT
MONTANA REGIONAL WEATHER ROUNDUP
NATIONAL WEATHER SERVICE GREAT FALLS MT
300 AM MDT WED MAY 25 2016

NOTE: "FAIR" INDICATES FEW OR NO CLOUDS BELOW 12000 FEET WITH NO
SIGNIFICANT WEATHER AND/OR OBSTRUCTIONS TO VISIBILITY.

MTZ001>007-043-251000-
WEST OF THE DIVIDE

CITY           SKY/WX    TMP DP  RH WIND       PRES   REMARKS
KALISPELL      CLOUDY    43  43 100 CALM      29.93S
MISSOULA       CLEAR     41  37  86 CALM      29.98R
BUTTE          CLOUDY    33  31  92 SE5       29.97S
MULLAN PASS    FOG       38  38 100 NW6       29.99R VSB 1/4
ANACONDA         N/A     36  34  93 CALM      29.96S
DEER LODGE       N/A     37  34  87 CALM      29.97S
EUREKA           N/A     45  41  87 CALM      29.92S
HAMILTON         N/A     45  39  81 S7        29.95S
LIBBY            N/A     41  39  93 CALM      29.95S
$$

MTZ008-052>055-251000-
SOUTHWEST MONTANA

CITY           SKY/WX    TMP DP  RH WIND       PRES   REMARKS
BOZEMAN        PTCLDY    40  38  93 CALM      29.94R
DILLON         CLOUDY    41  38  89 SE7       29.95R
ENNIS          CLOUDY    41  37  87 SE5       30.00R
$$

MTZ009-010-012-014-046-048-049-054-251000-
EAST SLOPES AND CENTRAL MONTANA

CITY           SKY/WX    TMP DP  RH WIND       PRES   REMARKS
CUT BANK       PTCLDY    40  37  89 W8        29.87S
GREAT FALLS    CLEAR     39  36  89 SW8       29.89S
MALMSTROM AFB  CLEAR     40  38  94 S2        29.89S
HELENA         CLEAR     42  39  89 CALM      29.93R
CHOTEAU          N/A     41  37  87 SW7       29.89S
$$

MTZ011-013-016-021-045-047-050-051-251000-
NORTH CENTRAL MONTANA

CITY           SKY/WX    TMP DP  RH WIND       PRES   REMARKS
HAVRE            N/A    N/A N/A N/A MISG      29.87S
LEWISTOWN      CLEAR     38  34  85 SE6       29.91S
N BAR RANCH      N/A     36  34  93 W6        29.93S WCI  31
CHINOOK          N/A     43  43 100 CALM      29.88S
$$

MTZ017>020-022>027-061-062-251000-
NORTHEAST MONTANA

CITY           SKY/WX    TMP DP  RH WIND       PRES   REMARKS
GLASGOW        CLOUDY    44  41  89 N5        29.87S
JORDAN           N/A     42  40  92 SW5       29.87S
SIDNEY         LGT RAIN  54  46  74 N12       29.87S
WOLF POINT     LGT RAIN  51  43  74 N3        29.87F
PLENTYWOOD       N/A     50  43  76 S3        29.90F
POPLAR           N/A     52  48  87 N5        29.88F
$$

MTZ028>42-056>058-251000-
SOUTHCENTRAL AND SOUTHEAST MONTANA

CITY           SKY/WX    TMP DP  RH WIND       PRES   REMARKS
BAKER          CLOUDY    52  46  80 N10       29.83R
BILLINGS       PTCLDY    47  43  86 NW8       29.90S
LIVINGSTON     CLOUDY    39  36  89 W5        29.92S
MILES CITY     LGT RAIN  51  48  89 CALM      29.87R
FORSYTH          N/A     54  52  94 SW3       29.86F
$$

REGIONAL REPORTS...DAKOTAS

CITY           SKY/WX    TMP DP  RH WIND       PRES   REMARKS
WILLISTON      LGT RAIN  56  43  61 N9        29.88S
MINOT          RAIN      59  52  77 S8        29.88R
DICKINSON      CLOUDY    52  49  89 NE9       29.80F
BEACH            N/A     46  46 100 N9        29.86S
CROSBY         CLOUDY    48  46  93 W8        29.93R
WATFORD CITY   LGT RAIN  52  50  93 N3        29.87F
BISMARCK       LGT RAIN  59  54  83 NE10      29.85R
GRAND FORKS    CLOUDY    59  52  77 E7        29.87S
FARGO          CLOUDY    66  50  56 E12       29.84F
BUFFALO SD       N/A     50  47  89 SW9       29.76R
RAPID CITY     PTCLDY    49  47  93 CALM      29.84F
$$

REGIONAL REPORTS...WYOMING/IDAHO/WASHINGTON

CITY           SKY/WX    TMP DP  RH WIND       PRES   REMARKS
GILLETTE       CLOUDY    45  44  97 W7        29.88R
SHERIDAN       CLOUDY    48  45  89 NW8       29.91S
BUFFALO WY     CLEAR     46  41  82 NW18G28   29.90S
CODY           CLOUDY    46  43  87 CALM      29.91S
YELLOWSTONE LA   N/A     33  31  92 CALM      30.01S
IDAHO FALLS    CLOUDY    47  44  90 NE3       29.96R
SALMON         PTCLDY    45  37  76 CALM      29.94S
BOISE          PTCLDY    53  41  63 NW5       29.92R
SPOKANE        PTCLDY    51  45  79 CALM      29.94R
$$

REGIONAL REPORTS...ALBERTA

CITY           SKY/WX    TMP DP  RH WIND       PRES   REMARKS
EDMONTON       CLEAR     50  43  76 S8        29.82S
CALGARY        CLEAR     43  39  87 S7        29.85S
LETHBRIDGE     PTCLDY    43  39  87 SE8       29.85F
MEDICINE HAT   CLEAR     39  39 100 SE2       29.88R
WATERTON GATE    N/A     48  37  66 SW17G25     N/A
MILK RIVER       N/A     39  37  93 NW2         N/A
$$

REGIONAL REPORTS...SASKATCHEWAN

CITY           SKY/WX    TMP DP  RH WIND       PRES   REMARKS
SWIFT CURRENT  FOG       45  45 100 SW6       29.86S VSB 1/4
REGINA         CLEAR     43  39  87 E2        29.87F
SASKATOON      CLEAR     43  43 100 NE9       29.89S
CYPRESS HILLS    N/A     37  36  93 W1          N/A
VAL MARIE        N/A     36  36 100 E2          N/A
ROCKGLEN         N/A     41  41 100 S5          N/A
ASSINIBOIA       N/A     46  45  93 S6          N/A
$$



USA.gov is the U.S. government's official web portal to all federal, state and local government web resources and services.